"Pseudo-MPEC" for P20U96n

Created 2019 Nov 11 9:07:17 UT using Find_Orb

Click here for an explanation of pseudo-MPECs

 
 Astrometry: 
     P20U96n  C2019 11 05/aQ,:NSJ'Astrometry/sredacted;d'.C#Y`Eo9w:bIGX2bEB#vF52
     P20U96n  C2019 11 05(=$5Au*H'1VJclick4idZ^WWS?'wmB5?r=6hereQ,WLIbt*M*.bsF52
     P20U96n  C2019 11 05rv1O-IhsF\for5CK/;CexplanationElO#rx?l(lP6.#b*5l8S;ZF52

Station data:
(F52) Pan-STARRS 2, Haleakala  (N20.707384 W156.255910)  US/Hawaii. 1.8-m
   Ritchey-Chrétien + CCD.

Orbital elements:  P20U96n
   Perihelion 2019 Nov 8.593277 +/- 43.7 TT = 14:14:19 (JD 2458796.093277)
Epoch 2019 Nov  5.0 TT = JDT 2458792.5   Earth MOID: 0.3566   AutoNEOCP
M 358.61726070 +/- 33               (J2000 ecliptic)
n   0.38481290 +/- 0.357            Peri.  128.95068 +/- 100
a   1.87198759 +/- 1.16             Node   265.80728 +/- 57
e   0.3170626 +/- 0.261             Incl.   18.22127 +/- 12
P   2.56/935.50d           H 20.9   G  0.15   U 12.0  SR
q 1.27845016 +/- 0.359    Q 2.46552501 +/- 38
From 3 observations 2019 Nov. 5 (50.7 min); mean residual 0".11
Residuals in arcseconds: 
191105 F52  .10+  .09-    191105 F52  .15-  .14+    191105 F52  .09+  .05-    

Ephemerides (geocentric):
Date (UTC) HH   RA              Dec         delta   r     elong  mag " sig PA
---- -- -- --  -------------   -----------  ------ ------ -----  --- ---- ---
2019 11 11 09  22 55 53.921   +41 15 18.40  .43809 1.2787 122.2 21.3 656'  47
2019 11 11 10  22 56 01.968   +41 14 18.02  .43809 1.2787 122.2 21.3 673'  46
2019 11 11 11  22 56 10.021   +41 13 17.59  .43810 1.2787 122.2 21.3 689'  46
2019 11 11 12  22 56 18.079   +41 12 17.13  .43811 1.2787 122.2 21.3 704'  46
2019 11 11 13  22 56 26.142   +41 11 16.62  .43812 1.2787 122.2 21.3 718'  45
2019 11 11 14  22 56 34.211   +41 10 16.08  .43812 1.2787 122.3 21.3 732'  45
2019 11 11 15  22 56 42.285   +41 09 15.49  .43813 1.2787 122.3 21.3 744'  45
2019 11 11 16  22 56 50.364   +41 08 14.85  .43814 1.2787 122.3 21.3 756'  45
2019 11 11 17  22 56 58.449   +41 07 14.18  .43815 1.2787 122.3 21.3 768'  44
2019 11 11 18  22 57 06.539   +41 06 13.47  .43816 1.2787 122.3 21.3 779'  44
2019 11 11 19  22 57 14.634   +41 05 12.71  .43817 1.2787 122.3 21.3 789'  44
2019 11 11 20  22 57 22.735   +41 04 11.91  .43817 1.2788 122.3 21.3 799'  43
2019 11 11 21  22 57 30.841   +41 03 11.07  .43818 1.2788 122.3 21.3 809'  43
2019 11 11 22  22 57 38.952   +41 02 10.18  .43819 1.2788 122.3 21.3 818'  43
2019 11 11 23  22 57 47.068   +41 01 09.26  .43820 1.2788 122.3 21.3 827'  43
2019 11 12 00  22 57 55.190   +41 00 08.29  .43821 1.2788 122.3 21.3 836'  42
2019 11 12 01  22 58 03.317   +40 59 07.29  .43822 1.2788 122.3 21.3 845'  42
2019 11 12 02  22 58 11.449   +40 58 06.24  .43823 1.2788 122.3 21.3 853'  42
2019 11 12 03  22 58 19.586   +40 57 05.15  .43824 1.2788 122.3 21.3 861'  42
2019 11 12 04  22 58 27.729   +40 56 04.02  .43825 1.2788 122.3 21.3 870'  42
2019 11 12 05  22 58 35.876   +40 55 02.84  .43826 1.2788 122.3 21.3 878'  42
2019 11 12 06  22 58 44.029   +40 54 01.63  .43827 1.2788 122.3 21.3 886'  42
2019 11 12 07  22 58 52.187   +40 53 00.37  .43828 1.2788 122.3 21.3 894'  41
2019 11 12 08  22 59 00.350   +40 51 59.08  .43829 1.2789 122.3 21.3 902'  41
2019 11 12 09  22 59 08.519   +40 50 57.74  .43830 1.2789 122.3 21.3 910'  41
2019 11 12 10  22 59 16.692   +40 49 56.36  .43831 1.2789 122.3 21.3 918'  41
2019 11 12 11  22 59 24.870   +40 48 54.94  .43832 1.2789 122.3 21.3 925'  41
2019 11 12 12  22 59 33.054   +40 47 53.48  .43834 1.2789 122.3 21.3 933'  41
2019 11 12 13  22 59 41.243   +40 46 51.97  .43835 1.2789 122.3 21.3 941'  41
2019 11 12 14  22 59 49.436   +40 45 50.43  .43836 1.2789 122.3 21.3 949'  41
2019 11 12 15  22 59 57.635   +40 44 48.85  .43837 1.2789 122.3 21.3 957'  41
2019 11 12 16  23 00 05.839   +40 43 47.22  .43838 1.2789 122.3 21.3 965'  41
2019 11 12 17  23 00 14.048   +40 42 45.56  .43840 1.2789 122.3 21.3 973'  41
2019 11 12 18  23 00 22.262   +40 41 43.85  .43841 1.2789 122.3 21.3 981'  41
2019 11 12 19  23 00 30.481   +40 40 42.11  .43842 1.2790 122.3 21.3 989'  41
2019 11 12 20  23 00 38.705   +40 39 40.32  .43843 1.2790 122.3 21.3 997'  41
2019 11 12 21  23 00 46.934   +40 38 38.49  .43845 1.2790 122.3 21.3  17d  41
2019 11 12 22  23 00 55.168   +40 37 36.62  .43846 1.2790 122.3 21.3  17d  41
2019 11 12 23  23 01 03.407   +40 36 34.71  .43847 1.2790 122.3 21.3  17d  41
2019 11 13 00  23 01 11.651   +40 35 32.77  .43849 1.2790 122.3 21.3  17d  41
2019 11 13 01  23 01 19.899   +40 34 30.78  .43850 1.2790 122.3 21.3  17d  41
2019 11 13 02  23 01 28.153   +40 33 28.75  .43851 1.2790 122.3 21.3  17d  41
2019 11 13 03  23 01 36.412   +40 32 26.68  .43853 1.2790 122.3 21.3  17d  41
2019 11 13 04  23 01 44.675   +40 31 24.57  .43854 1.2790 122.3 21.3  18d  41
2019 11 13 05  23 01 52.944   +40 30 22.42  .43856 1.2791 122.3 21.3  18d  41
2019 11 13 06  23 02 01.217   +40 29 20.23  .43857 1.2791 122.3 21.3  18d  41
2019 11 13 07  23 02 09.495   +40 28 18.00  .43858 1.2791 122.3 21.3  18d  41
2019 11 13 08  23 02 17.778   +40 27 15.73  .43860 1.2791 122.3 21.3  18d  41